EW6393 Weather Reports


Display with metric or nautical units.
time (UTC)temp
F
wind
direction
speed
MPH
gust
MPH
rain 1hr
in
rain 24hr
in
rain mn
in
humidity
%
barometer
mb
20260831122113 59 112 0.0 2.0 0.00 0.04 0.00 59 1018.9
20260831121620 59 65 1.0 2.0 0.00 0.04 0.00 59 1018.9
20260831121121 59 117 0.0 1.0 0.00 0.04 0.00 62 1018.9
20260831120650 58 117 1.0 1.0 0.00 0.07 0.00 63 1019.0
20260831120129 59 257 0.0 0.0 0.00 0.07 0.00 63 1018.9
20260831115636 59 257 0.0 0.0 0.00 0.07 0.00 62 1018.9
20260831115117 59 257 0.0 1.0 0.00 0.07 0.00 61 1018.8
20260831114625 60 257 0.0 1.0 0.00 0.07 0.00 59 1018.8
20260831114127 61 51 0.0 1.0 0.00 0.07 0.00 58 1018.8
20260831113628 61 51 0.0 2.0 0.00 0.07 0.00 57 1018.8
20260831113136 61 51 0.0 2.0 0.00 0.07 0.00 58 1018.8
20260831112619 61 70 0.0 1.0 0.00 0.07 0.00 57 1018.8
20260831112119 61 86 1.0 1.0 0.00 0.07 0.00 57 1018.8
20260831111627 60 73 1.0 1.0 0.00 0.07 0.00 57 1018.7
20260831111155 61 99 0.0 1.0 0.00 0.07 0.00 58 1018.6
20260831110636 61 99 0.0 2.0 0.00 0.07 0.00 57 1018.6
20260831110143 60 96 1.0 1.0 0.00 0.07 0.00 58 1018.6
20260831105624 60 101 0.0 1.0 0.00 0.07 0.00 59 1018.6
20260831105131 61 103 0.0 1.0 0.00 0.07 0.00 58 1018.6
20260831104639 61 103 0.0 1.0 0.00 0.07 0.00 58 1018.5
20260831104119 61 141 0.0 1.0 0.00 0.07 0.00 59 1018.5
20260831103620 61 141 0.0 1.0 0.00 0.07 0.00 58 1018.6
20260831103129 61 141 0.0 1.0 0.00 0.07 0.00 57 1018.6
20260831102611 61 141 0.0 1.0 0.00 0.07 0.00 57 1018.5
20260831102113 62 72 0.0 1.0 0.00 0.07 0.00 57 1018.6
20260831101643 63 72 0.0 1.0 0.00 0.07 0.00 55 1018.5
20260831101123 64 72 0.0 1.0 0.00 0.07 0.00 52 1018.3
20260831100633 64 69 0.0 1.0 0.00 0.07 0.00 51 1018.4
20260831100134 64 69 0.0 2.0 0.00 0.07 0.00 52 1018.3
20260831095622 64 69 1.0 2.0 0.00 0.07 0.00 53 1018.3
20260831095124 64 99 1.0 1.0 0.00 0.07 0.00 54 1018.3
20260831094626 64 60 0.0 2.0 0.00 0.07 0.00 53 1018.4
20260831094134 63 76 1.0 2.0 0.00 0.07 0.00 54 1018.3
20260831093636 63 60 1.0 1.0 0.00 0.07 0.00 54 1018.4
20260831093123 63 14 0.0 1.0 0.00 0.07 0.00 54 1018.3
20260831092625 63 14 0.0 1.0 0.00 0.07 0.00 55 1018.3
20260831092126 63 14 0.0 1.0 0.00 0.07 0.00 54 1018.3
20260831091635 64 14 0.0 2.0 0.00 0.07 0.00 52 1018.3
20260831091115 64 14 0.0 2.0 0.00 0.07 0.00 51 1018.3
20260831090615 63 79 0.0 1.0 0.00 0.07 0.00 54 1018.3
20260831090124 63 79 0.0 1.0 0.00 0.07 0.00 56 1018.4
20260831085631 63 79 0.0 0.0 0.00 0.07 0.00 56 1018.3
20260831085111 64 79 0.0 1.0 0.00 0.07 0.00 55 1018.3
20260831084613 65 79 0.0 1.0 0.00 0.07 0.00 53 1018.3
20260831084121 65 70 0.0 2.0 0.00 0.07 0.00 52 1018.3
20260831083622 65 70 0.0 2.0 0.00 0.07 0.00 54 1018.3
20260831083132 65 96 0.0 2.0 0.00 0.07 0.00 55 1018.3
20260831082612 65 91 1.0 2.0 0.00 0.07 0.00 55 1018.4
20260831082113 64 40 0.0 2.0 0.00 0.07 0.00 55 1018.5
20260831081622 64 84 0.0 2.0 0.00 0.07 0.00 56 1018.5
20260831081123 64 70 1.0 2.0 0.00 0.07 0.00 57 1018.5
20260831080626 64 75 1.0 2.0 0.00 0.07 0.00 57 1018.6
20260831080114 64 60 0.0 2.0 0.00 0.07 0.00 57 1018.6
20260831075616 64 75 1.0 2.0 0.00 0.07 0.00 57 1018.7
20260831075117 64 126 1.0 1.0 0.00 0.07 0.00 58 1018.8
20260831074626 64 120 0.0 1.0 0.00 0.07 0.00 57 1018.7
20260831074127 64 120 0.0 1.0 0.00 0.07 0.00 56 1018.7
20260831073637 64 120 0.0 1.0 0.00 0.07 0.00 56 1018.7
20260831073114 65 120 1.0 1.0 0.00 0.07 0.00 57 1018.6
20260831072614 65 90 0.0 1.0 0.00 0.07 0.00 55 1018.7
20260831072122 65 70 0.0 1.0 0.00 0.07 0.00 55 1018.6
20260831071625 65 70 0.0 1.0 0.00 0.07 0.00 57 1018.7
20260831071132 65 70 0.0 2.0 0.00 0.07 0.00 56 1018.8
20260831070635 65 70 1.0 2.0 0.00 0.07 0.00 57 1018.7
20260831070120 65 91 0.0 2.0 0.00 0.07 0.00 57 1018.7
20260831065623 65 59 0.0 1.0 0.00 0.07 0.00 58 1018.7
20260831065124 65 59 0.0 2.0 0.00 0.07 0.00 57 1018.6
20260831064633 65 65 0.0 2.0 0.00 0.07 0.00 57 1018.6
20260831064114 65 49 0.0 2.0 0.00 0.07 0.00 58 1018.6
20260831063614 65 85 0.0 3.0 0.00 0.07 0.00 58 1018.7
20260831063144 65 65 1.0 3.0 0.00 0.07 0.00 58 1018.6
20260831062625 65 74 0.0 2.0 0.00 0.07 0.00 59 1018.6
20260831062133 65 96 0.0 1.0 0.00 0.07 0.00 59 1018.8
20260831061615 65 96 0.0 1.0 0.00 0.07 0.00 59 1018.7
20260831061117 65 96 1.0 1.0 0.00 0.07 0.00 60 1018.6
20260831060625 65 96 1.0 1.0 0.00 0.08 0.07 59 1018.6
20260831060125 65 41 0.0 1.0 0.00 0.08 0.07 60 1018.6
20260831055634 65 40 0.0 1.0 0.00 0.08 0.07 59 1018.6
20260831055135 65 41 0.0 1.0 0.00 0.08 0.07 59 1018.5
20260831054623 65 40 0.0 1.0 0.00 0.08 0.07 59 1018.6
20260831054144 65 41 0.0 1.0 0.00 0.08 0.07 58 1018.6
20260831053653 65 40 0.0 1.0 0.00 0.08 0.07 59 1018.7
20260831053139 66 40 0.0 1.0 0.00 0.08 0.07 58 1018.7
20260831052621 66 40 0.0 1.0 0.00 0.08 0.07 57 1018.7
20260831052122 66 40 0.0 1.0 0.00 0.08 0.07 57 1018.7
20260831051624 66 41 0.0 0.0 0.00 0.08 0.07 58 1018.6
20260831051131 66 41 0.0 0.0 0.00 0.08 0.07 58 1018.6
20260831050614 66 40 0.0 1.0 0.00 0.09 0.07 57 1018.5
20260831050114 67 40 0.0 1.0 0.00 0.09 0.07 56 1018.4
20260831045642 67 41 0.0 1.0 0.00 0.09 0.07 55 1018.3
20260831045131 67 41 0.0 1.0 0.00 0.09 0.07 55 1018.3
20260831044630 67 40 0.0 1.0 0.00 0.09 0.07 54 1018.3
20260831044111 68 40 0.0 0.0 0.00 0.09 0.07 54 1018.3
20260831043613 68 40 0.0 1.0 0.00 0.09 0.07 53 1018.3
20260831043143 68 41 0.0 1.0 0.00 0.09 0.07 53 1018.3
20260831042632 68 40 0.0 2.0 0.00 0.09 0.07 53 1018.2
20260831042114 68 32 0.0 2.0 0.00 0.09 0.07 52 1018.2
20260831041614 68 67 0.0 1.0 0.00 0.09 0.07 52 1018.2
20260831041116 68 67 0.0 1.0 0.00 0.09 0.07 53 1018.3
20260831040624 67 67 0.0 1.0 0.00 0.10 0.07 53 1018.3
20260831040125 68 67 0.0 1.0 0.00 0.10 0.07 54 1018.3
20260831035633 68 67 0.0 1.0 0.00 0.10 0.07 52 1018.4
20260831035136 68 67 0.0 1.0 0.00 0.10 0.07 52 1018.3
20260831034622 69 68 0.0 1.0 0.00 0.10 0.07 52 1018.3
20260831034124 69 76 0.0 1.0 0.00 0.10 0.07 52 1018.1
20260831033633 69 62 0.0 2.0 0.00 0.10 0.07 51 1018.1
20260831033115 69 65 1.0 2.0 0.00 0.10 0.07 51 1018.0
20260831032615 69 68 0.0 1.0 0.00 0.10 0.07 51 1018.0
20260831032124 69 72 0.0 2.0 0.00 0.10 0.07 52 1018.0
20260831031625 69 72 0.0 2.0 0.00 0.10 0.07 51 1017.8
20260831031133 69 72 0.0 1.0 0.00 0.10 0.07 52 1017.7
20260831030614 69 72 0.0 0.0 0.00 0.10 0.07 52 1017.7
20260831030119 70 72 0.0 1.0 0.00 0.10 0.07 52 1017.6
20260831025618 70 72 0.0 1.0 0.00 0.10 0.07 50 1017.5
20260831025120 70 72 0.0 1.0 0.00 0.10 0.07 49 1017.4
20260831024630 71 72 0.0 1.0 0.00 0.10 0.07 49 1017.4
20260831024131 71 72 0.0 1.0 0.00 0.10 0.07 49 1017.3
20260831023612 71 72 0.0 1.0 0.00 0.10 0.07 49 1017.3
20260831023141 72 72 0.0 1.0 0.00 0.10 0.07 48 1017.3
20260831022649 72 72 0.0 1.0 0.00 0.10 0.07 47 1017.2
20260831022148 72 72 0.0 1.0 0.00 0.10 0.07 47 1017.1
20260831021635 73 68 0.0 1.0 0.00 0.10 0.07 46 1017.0
20260831021118 74 300 0.0 0.0 0.00 0.10 0.07 45 1017.0
20260831020646 75 300 0.0 0.0 0.00 0.11 0.07 44 1017.0
20260831020155 76 300 0.0 1.0 0.00 0.11 0.07 41 1017.0
20260831015617 77 300 0.0 2.0 0.00 0.11 0.07 41 1017.0
20260831015117 77 300 0.0 2.0 0.00 0.11 0.07 40 1017.0
20260831014618 77 302 0.0 3.0 0.00 0.11 0.07 40 1016.9
20260831014121 78 307 1.0 3.0 0.00 0.11 0.07 38 1016.9
20260831013651 78 289 1.0 3.0 0.00 0.11 0.07 38 1016.9
20260831013131 79 285 0.0 4.0 0.00 0.11 0.07 38 1017.0
20260831012612 79 319 1.0 4.0 0.00 0.11 0.07 37 1016.9
20260831012113 80 295 1.0 3.0 0.00 0.11 0.07 37 1016.9
20260831011620 79 291 0.0 4.0 0.00 0.11 0.07 38 1016.9
20260831011123 79 293 1.0 5.0 0.00 0.11 0.07 38 1017.0
20260831010633 79 300 3.0 6.0 0.00 0.11 0.07 37 1017.0
20260831010113 79 288 3.0 6.0 0.00 0.11 0.07 36 1017.0
20260831005614 80 295 0.0 5.0 0.00 0.11 0.07 37 1017.0
20260831005124 79 297 2.0 7.0 0.00 0.11 0.07 37 1017.0
20260831004625 79 301 2.0 7.0 0.00 0.11 0.07 37 1017.2
20260831004123 79 271 2.0 7.0 0.00 0.11 0.07 37 1017.2
20260831003632 79 311 2.0 6.0 0.00 0.11 0.07 37 1017.1
20260831003113 80 296 2.0 6.0 0.00 0.11 0.07 37 1017.1
20260831002613 80 273 2.0 5.0 0.00 0.11 0.07 38 1017.1
20260831002121 79 252 3.0 7.0 0.00 0.11 0.07 36 1017.0
20260831001622 80 285 4.0 8.0 0.00 0.11 0.07 38 1017.0
20260831001151 80 275 2.0 8.0 0.00 0.11 0.07 37 1017.0
20260831000630 80 291 3.0 12.0 0.00 0.11 0.07 37 1016.9
20260831000138 80 294 3.0 12.0 0.00 0.11 0.07 37 1017.0
20260830235619 80 311 1.0 8.0 0.00 0.11 0.07 37 1017.1
20260830235122 80 288 4.0 8.0 0.00 0.11 0.07 36 1017.2
20260830234630 81 279 2.0 7.0 0.00 0.11 0.07 38 1017.2
20260830234112 81 234 4.0 7.0 0.00 0.11 0.07 37 1017.2
20260830233615 81 288 1.0 7.0 0.00 0.11 0.07 39 1017.2
20260830233121 81 307 4.0 8.0 0.00 0.11 0.07 39 1017.3
20260830232622 80 311 4.0 10.0 0.00 0.11 0.07 39 1017.3
20260830232132 80 281 3.0 8.0 0.00 0.11 0.07 41 1017.2
20260830231613 80 271 3.0 7.0 0.00 0.11 0.07 41 1017.3
20260830231140 81 273 3.0 7.0 0.00 0.11 0.07 41 1017.2
20260830230621 81 274 2.0 5.0 0.00 0.12 0.07 40 1017.2
20260830230129 80 290 1.0 6.0 0.00 0.12 0.07 41 1017.2
20260830225629 79 236 4.0 7.0 0.00 0.12 0.07 40 1017.2
20260830225111 80 313 1.0 9.0 0.00 0.12 0.07 40 1017.3
20260830224639 80 310 5.0 9.0 0.00 0.12 0.07 40 1017.2
20260830224120 81 298 2.0 5.0 0.00 0.12 0.07 38 1017.2
20260830223629 81 319 2.0 4.0 0.00 0.12 0.07 38 1017.2
20260830223149 81 83 0.0 6.0 0.00 0.12 0.07 39 1017.2
20260830222637 81 290 3.0 7.0 0.01 0.12 0.07 38 1017.4
20260830222119 81 260 2.0 4.0 0.01 0.12 0.07 40 1017.4
20260830221642 80 141 1.0 2.0 0.01 0.12 0.07 39 1017.3
20260830221149 79 282 1.0 3.0 0.01 0.12 0.07 40 1017.5
20260830220636 79 232 1.0 4.0 0.01 0.12 0.07 42 1017.7
20260830220116 79 267 1.0 4.0 0.01 0.12 0.07 44 1017.6
20260830215624 79 262 1.0 5.0 0.01 0.12 0.07 44 1017.4
20260830215125 79 173 2.0 5.0 0.01 0.12 0.07 44 1017.6
20260830214655 79 139 1.0 5.0 0.01 0.12 0.07 45 1017.6
20260830214135 80 132 2.0 5.0 0.01 0.12 0.07 43 1017.6
20260830213624 80 276 2.0 5.0 0.01 0.12 0.07 41 1017.6
20260830213124 79 233 1.0 5.0 0.01 0.12 0.07 41 1017.7
20260830212626 80 268 2.0 4.0 0.00 0.11 0.06 42 1017.7
20260830212134 79 156 1.0 3.0 0.00 0.11 0.06 43 1017.8
20260830211615 78 245 0.0 2.0 0.00 0.11 0.06 46 1017.9
20260830211116 78 271 1.0 3.0 0.00 0.11 0.06 45 1018.0
20260830210616 76 262 1.0 3.0 0.00 0.11 0.06 46 1018.0
20260830210123 76 36 0.0 1.0 0.00 0.11 0.06 47 1018.1
20260830205625 76 37 0.0 2.0 0.00 0.11 0.06 47 1018.1
20260830205135 76 37 1.0 2.0 0.01 0.11 0.06 45 1018.1
20260830204637 77 306 0.0 4.0 0.02 0.11 0.06 44 1018.0
20260830204125 77 56 1.0 4.0 0.02 0.11 0.06 47 1018.3
20260830203627 76 311 0.0 2.0 0.02 0.11 0.06 50 1018.2
20260830203129 75 345 1.0 4.0 0.02 0.11 0.06 51 1018.3
20260830202639 75 329 1.0 4.0 0.02 0.11 0.06 49 1018.3
20260830202147 75 355 0.0 4.0 0.02 0.11 0.06 50 1018.3
20260830201642 75 340 1.0 3.0 0.02 0.11 0.06 52 1018.3
20260830201129 74 70 0.0 3.0 0.02 0.11 0.06 56 1018.4
20260830200615 74 314 0.0 2.0 0.02 0.11 0.06 64 1018.4
20260830200115 74 276 1.0 3.0 0.02 0.11 0.06 61 1018.4
20260830195623 74 284 2.0 5.0 0.02 0.11 0.06 63 1018.6
20260830195124 75 253 2.0 5.0 0.01 0.10 0.05 54 1018.5
20260830194634 76 281 3.0 5.0 0.00 0.09 0.04 51 1018.6
20260830194156 77 252 2.0 5.0 0.00 0.09 0.04 48 1018.5
20260830193616 77 319 1.0 5.0 0.00 0.09 0.04 50 1018.5
20260830193119 77 292 1.0 7.0 0.00 0.09 0.04 49 1018.4
20260830192619 78 283 3.0 7.0 0.00 0.09 0.04 46 1018.5
20260830192148 79 338 0.0 3.0 0.00 0.09 0.04 47 1018.5
20260830191636 79 100 1.0 5.0 0.00 0.09 0.04 47 1018.7
20260830191117 79 198 2.0 5.0 0.00 0.09 0.04 47 1018.7
20260830190618 78 194 1.0 4.0 0.00 0.09 0.04 49 1018.8
20260830190125 77 267 0.0 5.0 0.00 0.09 0.04 50 1018.8
20260830185611 77 268 1.0 6.0 0.00 0.09 0.04 50 1018.8
20260830185156 77 277 1.0 7.0 0.00 0.09 0.04 51 1018.9
20260830184617 77 293 3.0 7.0 0.00 0.09 0.04 51 1018.8
20260830184145 77 285 3.0 7.0 0.00 0.09 0.04 50 1018.8
20260830183626 76 283 2.0 4.0 0.00 0.09 0.04 51 1018.8
20260830183136 75 309 0.0 5.0 0.00 0.09 0.04 51 1018.9
20260830182618 75 13 2.0 5.0 0.00 0.09 0.04 50 1019.0
20260830182120 76 283 2.0 7.0 0.00 0.09 0.04 51 1019.0
20260830181622 75 279 4.0 7.0 0.00 0.09 0.04 52 1019.0
20260830181130 75 300 0.0 3.0 0.00 0.09 0.04 53 1018.9
20260830180657 74 335 1.0 4.0 0.00 0.22 0.04 52 1019.0
20260830180117 74 309 2.0 5.0 0.00 0.22 0.04 52 1019.1
20260830175618 74 319 2.0 5.0 0.00 0.22 0.04 53 1019.0
20260830175146 75 292 2.0 5.0 0.00 0.22 0.04 53 1019.1
20260830174634 74 274 2.0 5.0 0.00 0.22 0.04 55 1019.0
20260830174116 74 286 2.0 5.0 0.00 0.22 0.04 56 1019.0
20260830173618 74 271 0.0 4.0 0.00 0.22 0.04 55 1019.0
20260830173120 73 275 2.0 4.0 0.00 0.22 0.04 55 1019.0
20260830172649 74 285 2.0 4.0 0.00 0.22 0.04 56 1019.0
20260830172135 74 29 1.0 4.0 0.00 0.22 0.04 54 1019.0
20260830171617 74 211 1.0 3.0 0.00 0.22 0.04 54 1019.0
20260830171118 74 232 1.0 2.0 0.00 0.22 0.04 55 1019.0
20260830170620 74 172 1.0 4.0 0.00 0.47 0.04 56 1018.9
20260830170128 73 217 1.0 5.0 0.00 0.47 0.04 58 1018.9
20260830165657 72 302 1.0 4.0 0.00 0.47 0.04 59 1018.9
20260830165117 72 293 2.0 5.0 0.00 0.47 0.04 60 1018.9
20260830164619 73 255 1.0 4.0 0.00 0.47 0.04 61 1018.8
20260830164126 72 288 1.0 2.0 0.00 0.47 0.04 53 1018.7
20260830163627 72 74 0.0 2.0 0.00 0.47 0.04 54 1018.6
20260830163134 72 74 0.0 2.0 0.00 0.47 0.04 52 1018.6
20260830162616 72 138 1.0 3.0 0.00 0.47 0.04 53 1018.6
20260830162137 72 58 1.0 3.0 0.00 0.47 0.04 54 1018.6
20260830161625 72 250 0.0 3.0 0.00 0.47 0.04 55 1018.5
20260830161126 71 224 1.0 3.0 0.00 0.47 0.04 57 1018.4
20260830160636 71 215 0.0 2.0 0.00 0.47 0.04 57 1018.4
20260830160116 71 262 1.0 2.0 0.00 0.47 0.04 59 1018.5
20260830155625 70 269 0.0 1.0 0.00 0.47 0.04 60 1018.4
20260830155126 70 286 0.0 2.0 0.00 0.47 0.04 60 1018.4
20260830154627 70 145 0.0 2.0 0.00 0.47 0.04 62 1018.4
20260830154136 70 214 0.0 1.0 0.00 0.47 0.04 61 1018.4
20260830153615 70 190 0.0 1.0 0.00 0.47 0.04 60 1018.5
20260830153123 69 283 0.0 1.0 0.00 0.47 0.04 62 1018.3
20260830152624 68 283 0.0 1.0 0.00 0.47 0.04 64 1018.4
20260830152126 67 283 0.0 2.0 0.00 0.47 0.04 65 1018.4
20260830151633 67 283 0.0 2.0 0.00 0.47 0.04 65 1018.5
20260830151115 67 300 1.0 1.0 0.00 0.47 0.04 65 1018.5
20260830150617 67 300 1.0 1.0 0.00 0.67 0.04 64 1018.5
20260830150123 67 327 0.0 1.0 0.00 0.67 0.04 64 1018.5
20260830145625 66 327 0.0 1.0 0.00 0.67 0.04 66 1018.4
20260830145134 66 305 0.0 1.0 0.00 0.67 0.04 69 1018.5
20260830144615 66 85 0.0 1.0 0.00 0.67 0.04 71 1018.5
20260830144115 65 60 0.0 1.0 0.00 0.67 0.04 72 1018.6
20260830143616 64 60 0.0 1.0 0.00 0.67 0.04 71 1018.5
20260830143124 63 60 0.0 1.0 0.00 0.67 0.04 76 1018.5
20260830142626 62 60 0.0 2.0 0.00 0.67 0.04 76 1018.4
20260830142117 61 60 0.0 2.0 0.00 0.67 0.04 78 1018.4
20260830141617 61 129 0.0 1.0 0.00 0.67 0.04 79 1018.3
20260830141118 61 136 0.0 2.0 0.00 0.67 0.04 79 1018.2
20260830140626 61 278 0.0 2.0 0.00 0.67 0.04 78 1018.3
20260830140127 61 318 0.0 1.0 0.00 0.67 0.04 78 1018.2
20260830135636 61 302 0.0 2.0 0.00 0.67 0.04 79 1018.1
20260830135117 61 55 0.0 3.0 0.00 0.67 0.04 79 1018.0
20260830134618 62 138 0.0 3.0 0.00 0.67 0.04 76 1018.0
20260830134126 61 111 1.0 1.0 0.00 0.67 0.04 75 1018.0
20260830133627 61 111 0.0 1.0 0.00 0.67 0.04 80 1018.0
20260830133135 61 114 0.0 1.0 0.00 0.67 0.04 77 1017.9
20260830132617 61 114 0.0 1.0 0.01 0.67 0.04 81 1018.0
20260830132119 60 114 0.0 1.0 0.01 0.67 0.04 82 1017.9
20260830131620 60 114 0.0 1.0 0.01 0.67 0.04 83 1017.9
20260830131130 60 114 0.0 1.0 0.01 0.67 0.04 84 1017.9
20260830130614 60 114 0.0 1.0 0.01 0.67 0.04 84 1017.7
20260830130115 60 114 0.0 1.0 0.01 0.67 0.04 84 1017.7
20260830125625 60 118 0.0 1.0 0.01 0.67 0.04 84 1017.9
20260830125127 61 119 0.0 2.0 0.01 0.67 0.04 80 1017.9
20260830124637 61 104 1.0 2.0 0.02 0.67 0.04 82 1017.8
20260830124119 61 87 0.0 3.0 0.03 0.67 0.04 79 1017.9
20260830123642 61 54 1.0 3.0 0.04 0.67 0.04 77 1017.6
20260830123128 61 105 1.0 3.0 0.04 0.67 0.04 78 1017.5
20260830122630 61 64 1.0 3.0 0.03 0.66 0.03 75 1017.7